GW3247 Weather Reports


time (UTC)temp
C
wind
direction
speed
KPH
gust
KPH
rain 1hr
cm
rain 24hr
cm
rain mn
cm
humidity
%
barometer
mb
20260903093013 15 227 9.7 22.5 0.23 1.17 0.94 92 1009.8
20260903091511 15 171 3.2 6.4 0.33 1.12 0.89 92 1009.9
20260903090109 15 217 1.6 6.4 0.30 1.07 0.81 92 1010.1
20260903084523 15 220 4.8 12.9 0.25 0.99 0.76 92 1010.3
20260903083017 15 214 3.2 8.0 0.20 0.94 0.71 92 1010.4
20260903081505 15 194 1.6 9.7 0.05 0.79 0.56 92 1010.6
20260903080006 15 205 4.8 11.3 0.03 0.76 0.51 93 1010.8
20260903074606 15 220 1.6 4.8 0.00 0.71 0.51 93 1011.0
20260903073059 15 220 0.0 1.6 0.00 0.71 0.51 93 1010.9
20260903071555 15 266 0.0 1.6 0.03 0.71 0.51 93 1011.1
20260903070052 15 285 0.0 9.7 0.05 0.71 0.51 93 1011.4
20260903064557 14 161 0.0 4.8 0.10 0.71 0.51 93 1011.3
20260903063047 14 111 1.6 3.2 0.13 0.71 0.51 93 1011.6
20260903061546 14 155 1.6 4.8 0.28 0.71 0.48 92 1011.7
20260903060044 14 135 3.2 8.0 0.28 0.69 0.43 92 1011.9
20260903054543 14 150 3.2 4.8 0.33 0.64 0.41 92 1011.8
20260903053054 14 160 1.6 4.8 0.30 0.61 0.36 92 1012.0
20260903051546 14 196 1.6 4.8 0.15 0.43 0.20 92 1012.1
20260903050039 14 223 1.6 8.0 0.15 0.41 0.15 92 1012.1
20260903044541 13 166 1.6 3.2 0.08 0.33 0.08 92 1012.4
20260903043037 13 183 1.6 3.2 0.05 0.30 0.05 91 1012.4
20260903041535 13 143 1.6 6.4 0.05 0.28 0.05 91 1012.6
20260903040041 13 149 1.6 6.4 0.00 0.23 0.00 91 1012.6
20260903034534 13 157 3.2 6.4 0.00 0.23 0.00 90 1012.8
20260903033030 13 149 1.6 6.4 0.00 0.23 0.00 90 1012.8
20260903031530 13 157 3.2 6.4 0.00 0.23 0.00 89 1012.9
20260903030030 13 172 3.2 4.8 0.00 0.23 0.00 89 1013.1
20260903024527 13 169 3.2 6.4 0.00 0.23 0.00 89 1013.1
20260903023030 13 185 3.2 6.4 0.00 0.23 0.00 89 1013.2
20260903021524 13 211 3.2 8.0 0.00 0.23 0.00 88 1013.4
20260903020022 13 182 3.2 8.0 0.00 0.23 0.00 88 1013.6
20260903014520 13 172 3.2 6.4 0.00 0.23 0.00 87 1013.6
20260903013019 13 176 1.6 3.2 0.00 0.23 0.00 87 1013.7
20260903011518 13 198 1.6 4.8 0.00 0.23 0.00 87 1013.7
20260903010016 13 219 1.6 4.8 0.00 0.23 0.00 86 1013.8
20260903004516 13 245 3.2 8.0 0.00 0.23 0.00 87 1013.9
20260903003014 13 231 4.8 6.4 0.00 0.23 0.00 87 1013.9
20260903001513 13 208 3.2 8.0 0.00 0.23 0.00 87 1013.9
20260903000020 13 269 1.6 8.0 0.00 0.23 0.00 88 1014.0
20260902234514 13 233 3.2 8.0 0.00 0.23 0.00 89 1014.0
20260902233009 13 240 3.2 8.0 0.00 0.23 0.00 89 1014.0
20260902231520 13 222 3.2 6.4 0.00 0.23 0.00 89 1014.0
20260902230007 14 214 3.2 8.0 0.00 0.23 0.00 89 1014.0
20260902224504 14 243 4.8 11.3 0.00 0.66 0.00 89 1014.1
20260902223002 14 243 3.2 8.0 0.00 0.66 0.00 90 1014.0
20260902221602 15 253 1.6 8.0 0.00 0.66 0.00 90 1013.9
20260902220101 15 249 6.4 12.9 0.00 0.66 0.00 90 1013.9
20260902214609 15 246 6.4 16.1 0.00 0.66 0.66 90 1013.8
20260902213055 15 229 6.4 16.1 0.00 0.66 0.66 90 1013.9
20260902211555 15 231 3.2 12.9 0.00 0.66 0.66 90 1013.8
20260902210116 15 229 8.0 14.5 0.00 0.66 0.66 90 1014.0
20260902204556 15 233 6.4 16.1 0.00 0.66 0.66 90 1014.1
20260902203058 15 274 6.4 16.1 0.00 0.66 0.66 90 1014.1
20260902201553 15 238 8.0 17.7 0.00 0.66 0.66 90 1014.2
20260902200105 15 277 6.4 14.5 0.00 0.66 0.66 90 1014.0
20260902194559 15 234 6.4 16.1 0.00 0.79 0.66 90 1014.0
20260902193051 15 216 8.0 16.1 0.00 0.79 0.66 90 1013.9
20260902191559 15 217 6.4 14.5 0.00 0.79 0.66 90 1013.9
20260902190116 15 226 3.2 14.5 0.00 0.79 0.66 89 1014.0
20260902184602 15 203 6.4 17.7 0.00 0.91 0.66 89 1013.8
20260902183049 15 243 6.4 14.5 0.00 0.91 0.66 89 1013.7
20260902181605 15 278 8.0 19.3 0.00 0.91 0.66 88 1013.8
20260902180047 16 267 6.4 17.7 0.00 0.91 0.66 87 1013.6
20260902174547 16 209 8.0 22.5 0.00 0.91 0.66 86 1013.2
20260902173047 16 217 8.0 20.9 0.00 0.91 0.66 86 1013.4
20260902171607 16 225 12.9 20.9 0.00 0.91 0.66 85 1013.4
20260902170047 16 224 12.9 22.5 0.00 0.91 0.66 84 1013.4
20260902164545 16 252 11.3 20.9 0.00 0.91 0.66 84 1013.5
20260902163042 16 240 4.8 19.3 0.00 0.91 0.66 85 1013.6
20260902161546 16 224 11.3 20.9 0.00 0.91 0.66 85 1013.6
20260902160043 16 238 9.7 24.1 0.00 0.91 0.66 85 1013.5
20260902154540 16 244 9.7 25.7 0.00 0.91 0.66 86 1013.5
20260902153039 16 279 12.9 27.4 0.00 0.91 0.66 87 1013.9
20260902151538 16 238 4.8 19.3 0.00 0.91 0.66 88 1013.9
20260902150037 16 236 8.0 17.7 0.00 0.91 0.66 89 1014.0
20260902144537 16 222 8.0 17.7 0.03 0.91 0.66 89 1014.1
20260902143036 15 224 6.4 12.9 0.05 0.91 0.66 89 1014.2
20260902141545 15 198 4.8 9.7 0.18 0.91 0.66 88 1014.1
20260902140035 15 214 6.4 16.1 0.20 0.91 0.66 88 1014.2
20260902134539 15 229 4.8 17.7 0.18 0.89 0.64 87 1014.3
20260902133038 15 218 11.3 32.2 0.15 0.86 0.61 84 1014.5
20260902131535 17 139 12.9 22.5 0.03 0.71 0.48 80 1014.1
20260902130036 18 246 11.3 32.2 0.00 0.71 0.46 78 1014.0
20260902124532 18 219 16.1 27.4 0.00 0.71 0.46 74 1013.8
20260902123031 18 296 16.1 25.7 0.00 0.71 0.46 74 1014.0
20260902121530 18 232 8.0 25.7 0.05 0.71 0.46 73 1013.9
20260902120028 18 331 17.7 29.0 0.05 0.71 0.46 73 1014.0
20260902114528 18 274 9.7 20.9 0.05 0.71 0.46 77 1014.0
20260902113029 18 233 8.0 22.5 0.05 0.71 0.46 77 1014.3
20260902111524 18 188 12.9 29.0 0.00 0.69 0.43 75 1014.2
20260902110023 18 244 8.0 24.1 0.00 0.69 0.43 75 1014.3
20260902104528 18 230 4.8 20.9 0.00 0.69 0.43 76 1014.5
20260902103020 18 251 9.7 19.3 0.00 0.69 0.43 76 1014.4
20260902101516 18 231 4.8 16.1 0.00 0.69 0.43 80 1014.3
20260902100016 17 235 8.0 19.3 0.00 0.69 0.43 81 1014.5
20260902094514 17 281 4.8 20.9 0.00 0.69 0.43 81 1014.6